Wind_Speed
7 7 6 6 5 5 5 3 1 1 1 1 1 1 1 1 1 2 2 2 3 4 5 5 6 7 8 9 9 10 11 11 11 12 12 11 11 11 11 12 12 12 13 14 14 15 16 17 18
9 8 8 7 6 6 5 3 2 2 1 1 1 1 1 1 2 2 3 3 4 5 6 7 8 9 10 11 11 12 12 12 12 12 12 12 12 12 12 12 13 13 14 14 15 16 17 18 19
9 8 8 7 6 6 5 3 2 2 1 1 2 3 3 3 4 5 5 5 6 7 8 9 10 11 12 12 13 13 12 12 12 12 12 11 11 12 12 13 13 14 14 14 15 16 17 18 19
7 7 6 5 4 5 3 1 1 1 2 4 4 5 5 6 7 8 8 8 8 9 10 11 12 13 13 14 13 13 12 12 12 11 11 11 12 12 12 13 14 14 15 15 16 16 17 18 19
5 3 3 2 1 1 0 1 3 4 6 7 8 8 7 10 9 10 11 11 11 11 12 14 14 15 14 14 13 13 12 11 11 11 11 12 12 13 14 14 15 15 16 16 17 18 19 19 20
3 3 3 3 3 4 5 5 7 8 9 10 11 12 10 13 12 13 13 13 14 14 15 16 16 16 15 14 14 12 11 11 11 11 12 13 13 14 15 16 16 17 17 18 19 19 20 21 22
5 6 7 7 8 8 10 9 10 12 13 14 14 15 13 16 16 15 16 16 16 16 16 17 16 16 15 14 13 12 11 11 12 12 13 13 14 15 16 17 17 18 19 19 20 21 22 23 24
7 8 10 10 11 12 13 11 13 15 15 16 17 17 14 17 18 17 18 18 18 18 18 18 17 16 16 15 13 12 12 12 12 12 13 14 14 15 16 17 18 19 19 20 21 22 23 24 25
9 10 11 12 12 13 14 13 15 16 17 17 19 17 15 17 19 19 19 19 19 19 18 18 18 17 16 15 14 13 13 12 13 13 13 14 15 15 16 17 18 19 20 21 22 23 24 25 27
10 11 12 12 13 13 15 15 15 15 18 18 18 17 17 17 19 19 19 19 19 19 18 18 18 17 16 16 15 14 14 14 14 14 14 15 15 16 17 18 19 20 21 22 23 24 25 26 27
12 12 13 13 13 14 14 15 16 16 17 18 16 17 17 19 19 19 19 19 19 19 19 20 19 18 18 17 17 16 16 16 16 16 16 16 17 17 18 19 20 21 23 24 25 26 27 28 29
13 14 14 14 15 15 15 15 16 18 18 17 17 19 17 19 19 20 20 19 19 19 20 21 20 19 20 19 19 19 19 19 19 18 19 19 20 20 21 22 24 25 26 27 28 29 30 31 32
16 16 17 17 16 16 16 17 17 19 19 18 18 20 18 19 20 20 20 20 20 21 22 22 22 22 22 22 22 22 22 22 22 22 22 23 23 24 25 26 27 28 29 30 31 33 34 35 36
18 18 19 19 18 17 16 18 20 20 19 20 20 21 21 20 21 21 22 22 22 23 23 23 23 24 25 25 25 25 25 26 26 26 27 27 28 29 29 30 31 32 33 34 36 37 38 39 40
22 22 22 22 21 19 18 18 23 22 20 21 22 22 23 23 23 23 24 25 25 25 26 26 27 27 28 28 29 29 29 29 29 30 31 32 32 33 34 34 36 37 37 39 40 41 42 43 44
26 25 25 25 23 22 21 19 25 25 23 21 22 24 24 24 25 26 27 27 28 28 28 28 29 30 31 32 32 32 32 32 33 34 35 36 37 37 38 39 40 41 42 43 44 45 46 47 48
28 27 27 28 26 24 23 20 25 28 26 23 24 24 25 25 26 27 29 29 30 30 30 30 31 32 34 35 35 36 36 36 37 38 39 40 41 42 43 43 44 45 46 47 48 49 50 51 52
28 28 27 28 28 25 24 22 24 27 27 26 26 26 26 26 27 28 29 30 31 32 32 32 34 35 37 38 38 39 39 40 41 42 43 44 45 46 47 47 48 49 50 51 52 54 54 55 56
25 25 25 25 25 24 23 23 25 25 25 25 26 26 27 27 28 29 29 30 31 33 34 34 35 37 38 39 40 42 43 44 45 45 46 47 48 50 51 52 52 53 54 54 56 58 59 60 61
21 21 21 22 22 21 19 22 25 25 25 25 25 26 27 27 27 28 29 29 30 31 33 35 36 37 39 41 42 44 45 46 46 47 48 50 52 53 54 55 56 57 58 58 59 61 63 63 64
19 20 19 19 19 19 18 19 25 25 25 25 26 26 26 27 27 28 28 29 29 31 32 34 36 37 39 41 43 44 45 46 46 48 50 53 54 55 57 58 59 60 61 62 63 64 66 67 67
18 20 20 20 20 19 20 18 23 27 26 26 27 27 27 27 28 28 29 29 30 31 33 34 36 38 39 41 43 44 46 46 47 50 52 54 56 57 59 60 61 63 64 65 66 68 69 69 69
19 20 21 22 23 21 21 21 21 28 28 27 28 29 29 28 29 29 30 31 31 32 33 35 36 38 40 42 44 46 47 48 51 52 54 55 57 59 60 62 63 65 66 67 68 70 70 70 69
21 22 23 24 25 24 23 22 22 26 28 30 32 32 32 31 31 32 32 33 34 35 36 37 38 40 42 43 45 47 49 51 53 54 56 57 59 60 61 63 65 66 68 69 70 71 71 70 69
23 25 27 28 28 28 27 26 25 28 30 33 34 36 35 35 34 34 35 36 37 37 38 39 41 42 44 45 47 49 50 53 54 56 57 59 60 61 62 64 66 67 69 70 71 71 70 70 69
25 26 28 30 30 30 29 29 28 31 33 34 36 38 39 37 36 36 37 38 39 40 41 42 43 45 46 47 49 50 52 54 55 57 58 60 61 62 63 65 66 68 69 70 70 70 69 69 68
27 27 29 31 33 34 33 32 31 31 32 35 38 41 41 39 37 38 39 40 42 43 44 45 46 47 48 49 51 52 54 55 56 57 59 60 62 63 64 65 66 67 67 68 69 68 68 68 68
29 30 31 33 35 38 36 36 34 33 35 37 39 41 41 39 39 39 40 41 42 43 44 45 46 47 49 50 51 53 55 56 57 58 59 60 62 63 64 65 65 65 66 67 68 68 68 68 68
29 30 32 33 35 37 39 35 33 34 35 37 39 40 39 37 38 39 39 40 41 42 43 44 45 47 49 51 52 54 55 56 57 57 58 60 61 62 62 63 64 64 65 66 66 66 67 67 66
31 31 31 32 33 35 38 36 33 35 37 38 39 38 38 37 38 39 40 40 41 42 43 44 45 47 48 50 51 52 53 55 56 56 57 58 59 60 61 61 62 63 64 64 65 65 66 67 67
Wind_Direction
107 112 119 127 132 135 99 86 80 119 159 173 191 209 229 262 285 283 294 298 292 287 285 285 285 286 287 289 290 291 291 290 290 290 291 291 292 292 293 293 292 291 289 288 285 283 282 281 280
98 103 108 113 120 113 98 105 116 114 143 178 211 247 263 271 277 284 285 287 286 286 286 287 288 290 291 291 291 291 291 291 291 291 292 293 294 294 295 295 293 292 290 288 286 284 282 281 281
92 95 101 106 106 98 103 111 112 128 210 253 262 271 279 281 282 281 281 281 281 281 283 286 288 289 289 290 290 290 290 290 291 292 293 294 295 296 296 296 295 294 292 290 288 287 285 284 283
84 89 94 98 97 99 107 108 90 242 268 274 275 275 280 280 278 280 280 279 279 279 281 283 286 287 287 287 288 287 288 289 291 292 294 296 297 298 298 298 297 296 295 295 293 292 290 289 288
65 63 66 78 61 65 211 252 269 272 274 277 278 277 278 279 276 277 277 277 277 277 279 281 283 284 285 285 285 285 286 287 290 292 295 297 299 300 300 300 300 300 299 298 297 296 295 294 292
12 350 327 312 297 289 276 272 274 277 278 278 278 278 278 277 278 277 277 277 276 276 277 279 281 282 282 281 282 282 283 286 290 294 298 300 302 304 304 304 304 303 302 301 300 299 298 296 295
328 322 312 305 297 292 286 285 282 281 280 279 278 277 278 278 279 278 279 278 277 277 276 278 278 278 277 278 278 279 281 285 290 296 300 304 306 307 308 308 307 306 305 303 302 301 300 298 297
317 311 304 301 296 291 290 289 284 283 281 281 279 278 281 275 280 279 278 278 277 276 275 275 276 275 274 273 273 276 280 284 291 297 303 307 309 311 311 311 311 310 308 307 306 305 303 301 299
319 313 306 304 300 293 295 293 286 285 284 281 280 283 282 276 278 279 278 277 276 275 274 273 273 272 270 269 270 274 278 284 290 296 302 305 308 309 310 311 312 311 311 310 309 308 306 304 302
321 318 313 311 305 300 297 296 291 286 285 283 282 286 282 278 277 278 278 277 276 275 274 271 268 268 267 266 269 272 277 281 287 292 297 300 302 304 306 308 309 309 309 309 309 309 308 307 305
320 319 320 318 313 307 301 296 292 289 283 286 287 282 280 279 278 278 278 277 275 274 271 268 267 265 265 265 268 271 274 278 282 286 290 293 296 298 300 302 303 304 305 305 306 307 307 307 307
315 319 321 320 318 314 308 298 291 289 287 291 286 281 278 278 279 278 277 276 274 271 268 268 267 266 264 265 266 270 273 276 279 282 285 288 291 294 296 297 298 300 300 301 302 303 304 305 305
306 312 315 317 318 316 312 303 294 287 291 290 285 283 282 279 278 277 276 275 272 270 268 268 269 268 266 266 267 269 271 273 276 279 282 285 288 290 292 294 296 297 298 299 299 300 300 301 302
296 301 306 310 312 313 312 304 297 291 290 288 286 284 283 281 279 278 277 274 273 271 270 270 269 268 267 266 267 269 270 272 274 277 280 282 284 287 289 291 293 294 295 296 297 297 298 299 300
290 294 298 303 306 308 309 304 298 297 295 291 287 284 283 281 280 278 276 275 274 272 271 270 269 269 269 268 268 269 270 271 273 275 278 280 282 284 286 288 290 292 293 294 295 296 296 297 298
287 290 294 295 299 304 305 302 298 298 300 297 291 287 284 283 282 280 278 276 275 274 273 271 271 270 269 269 269 270 271 271 273 274 276 279 281 282 285 286 288 290 292 293 293 294 295 296 297
286 288 292 294 295 298 299 299 295 298 301 301 296 292 289 285 282 280 280 279 278 277 274 273 271 271 269 269 269 270 271 271 272 273 275 277 280 282 283 285 287 289 291 292 293 294 294 295 295
288 291 293 294 296 297 296 294 292 295 299 299 298 296 294 291 287 284 283 281 280 278 276 273 271 270 270 269 270 270 270 270 271 272 274 276 279 281 283 285 287 289 290 291 292 293 294 295 295
290 292 293 294 296 298 298 294 291 294 297 298 298 298 298 297 294 291 288 284 282 280 278 275 273 273 272 272 271 271 271 272 273 274 276 277 278 280 283 285 287 288 290 291 292 293 294 294 295
295 296 296 297 298 299 298 295 294 296 298 299 300 301 301 300 299 297 294 291 287 284 282 280 278 276 276 275 274 274 275 275 276 276 277 277 278 280 283 285 287 288 289 290 291 292 293 294 294
301 301 302 302 302 304 302 299 297 297 298 301 301 301 301 301 301 299 297 295 292 288 285 283 282 280 279 278 278 277 277 278 278 278 277 277 279 281 282 284 286 288 289 290 291 292 293 293 294
304 304 306 306 306 308 307 307 305 303 304 305 304 303 303 303 303 301 299 296 293 290 287 285 283 282 281 279 279 278 278 278 278 277 277 278 279 281 282 284 286 287 288 289 290 291 292 293 294
304 305 306 307 308 309 308 308 310 306 307 307 305 304 305 305 304 303 300 297 295 292 289 287 285 284 282 281 280 279 280 279 278 279 279 280 280 281 283 284 285 286 287 289 290 291 292 293 294
305 306 306 305 306 306 307 308 313 308 309 307 305 305 305 306 306 304 300 297 295 293 290 288 286 284 282 281 281 280 280 280 280 280 281 281 281 282 283 284 284 286 287 288 289 290 292 293 293
304 306 306 307 310 312 313 315 317 311 309 306 305 305 305 306 304 301 298 296 294 292 291 289 287 285 284 283 282 281 281 281 281 281 281 281 282 282 283 283 284 285 286 287 288 290 291 292 293
302 304 306 307 309 308 309 310 312 309 306 304 302 302 302 303 303 300 298 296 295 294 292 290 289 287 285 284 283 282 282 282 282 282 282 283 283 283 283 284 285 286 286 287 288 289 291 292 293
301 302 303 303 304 304 305 307 308 308 305 302 302 301 303 306 306 303 300 299 298 296 294 292 290 288 287 286 285 284 283 283 283 283 283 284 284 285 285 285 285 286 287 288 289 290 291 291 292
299 301 302 303 304 305 307 310 313 312 308 305 304 305 309 310 307 303 301 300 298 297 295 293 291 289 288 287 286 285 285 284 284 284 284 285 285 286 286 287 287 287 287 288 289 290 290 291 292
294 296 298 299 301 302 305 309 313 309 307 305 306 308 311 310 306 305 304 302 301 299 297 296 294 292 290 289 287 286 285 285 285 285 285 285 286 286 286 287 288 288 289 289 289 290 290 290 291
296 297 298 299 300 302 304 310 313 310 308 308 310 313 313 311 310 309 308 307 306 304 303 301 299 297 294 292 290 289 287 287 287 287 287 287 287 287 288 288 289 290 290 290 291 291 290 291 291
Height
5861 5861 5861 5862 5863 5863 5862 5863 5863 5864 5865 5865 5865 5865 5866 5867 5868 5870 5869 5868 5868 5869 5869 5869 5870 5870 5870 5870 5870 5870 5869 5869 5869 5869 5868 5868 5868 5868 5868 5868 5868 5868 5868 5868 5868 5868 5868 5868 5868
5862 5862 5863 5863 5863 5863 5863 5863 5864 5865 5865 5865 5865 5865 5865 5866 5866 5866 5866 5867 5867 5868 5868 5868 5868 5868 5868 5868 5868 5868 5867 5867 5867 5866 5866 5866 5866 5865 5865 5865 5865 5865 5865 5865 5865 5865 5865 5864 5864
5863 5863 5864 5864 5864 5863 5863 5864 5864 5865 5865 5865 5865 5865 5865 5866 5865 5865 5866 5866 5866 5866 5866 5866 5866 5866 5866 5866 5866 5865 5865 5864 5864 5864 5863 5863 5863 5863 5862 5862 5862 5862 5862 5862 5862 5862 5861 5861 5861
5865 5865 5865 5865 5864 5863 5864 5864 5865 5865 5865 5865 5865 5865 5865 5865 5865 5864 5864 5864 5864 5865 5864 5864 5864 5864 5864 5863 5863 5863 5862 5862 5862 5861 5861 5861 5860 5860 5860 5860 5859 5859 5859 5858 5858 5858 5858 5857 5857
5866 5866 5866 5865 5864 5864 5864 5864 5865 5865 5865 5865 5864 5864 5864 5863 5863 5862 5862 5862 5862 5863 5862 5862 5862 5862 5861 5861 5861 5860 5860 5859 5859 5859 5859 5858 5858 5857 5857 5857 5856 5856 5855 5855 5854 5854 5853 5853 5853
5867 5867 5866 5865 5864 5864 5864 5863 5864 5864 5863 5863 5863 5862 5863 5861 5861 5860 5860 5860 5860 5860 5860 5859 5859 5859 5859 5858 5858 5858 5857 5857 5857 5857 5856 5856 5855 5854 5854 5853 5853 5852 5851 5851 5850 5850 5849 5848 5848
5867 5866 5865 5864 5863 5863 5863 5862 5862 5862 5861 5861 5860 5860 5860 5859 5858 5858 5857 5857 5857 5857 5857 5856 5856 5856 5856 5856 5855 5855 5855 5855 5854 5854 5853 5853 5852 5851 5851 5850 5849 5849 5848 5847 5846 5846 5845 5844 5843
5866 5866 5864 5863 5862 5862 5861 5861 5860 5860 5859 5858 5858 5857 5858 5857 5855 5855 5855 5854 5854 5854 5854 5854 5853 5853 5853 5853 5853 5852 5852 5852 5852 5851 5850 5850 5849 5848 5848 5847 5846 5845 5844 5843 5842 5841 5840 5839 5838
5865 5865 5863 5861 5861 5860 5859 5859 5858 5857 5856 5856 5854 5854 5855 5854 5853 5852 5851 5851 5851 5851 5851 5851 5851 5850 5850 5850 5850 5850 5849 5849 5849 5848 5847 5847 5846 5845 5845 5844 5843 5842 5841 5840 5838 5837 5836 5835 5833
5864 5863 5861 5860 5859 5858 5857 5856 5855 5855 5854 5852 5852 5851 5851 5850 5849 5849 5848 5848 5847 5847 5847 5847 5847 5847 5847 5847 5847 5847 5846 5846 5845 5845 5844 5844 5843 5842 5841 5840 5839 5838 5837 5836 5835 5833 5832 5830 5828
5862 5861 5859 5858 5856 5855 5855 5854 5852 5851 5851 5849 5849 5848 5848 5846 5846 5845 5844 5844 5844 5844 5844 5843 5844 5844 5844 5844 5844 5843 5843 5842 5842 5841 5841 5840 5839 5839 5838 5837 5835 5834 5833 5832 5830 5829 5827 5825 5824
5860 5859 5857 5856 5854 5853 5852 5851 5850 5848 5847 5847 5846 5844 5845 5843 5842 5841 5841 5841 5840 5840 5840 5839 5840 5840 5840 5840 5840 5839 5839 5839 5838 5837 5837 5836 5835 5834 5833 5832 5831 5829 5828 5827 5825 5823 5821 5819 5817
5858 5856 5855 5853 5852 5851 5850 5848 5846 5845 5844 5843 5842 5841 5840 5840 5839 5838 5837 5837 5836 5836 5836 5835 5836 5836 5836 5836 5836 5835 5835 5834 5834 5833 5832 5831 5830 5829 5828 5826 5825 5823 5822 5820 5819 5817 5815 5812 5810
5855 5854 5852 5851 5849 5848 5847 5844 5842 5842 5841 5839 5838 5837 5836 5836 5835 5834 5833 5833 5832 5832 5831 5831 5831 5831 5830 5830 5830 5830 5830 5829 5828 5827 5826 5825 5824 5822 5821 5820 5818 5817 5815 5813 5811 5809 5806 5804 5801
5850 5850 5849 5848 5846 5845 5844 5842 5838 5837 5837 5836 5834 5833 5832 5831 5831 5830 5829 5828 5828 5827 5827 5826 5826 5825 5825 5824 5824 5824 5823 5823 5822 5821 5819 5818 5817 5815 5814 5812 5811 5809 5807 5805 5802 5800 5797 5795 5792
5846 5845 5845 5844 5843 5841 5841 5839 5834 5832 5832 5832 5830 5829 5828 5827 5826 5825 5824 5823 5823 5822 5822 5821 5820 5819 5819 5818 5817 5817 5816 5816 5815 5813 5812 5810 5809 5807 5806 5804 5802 5799 5797 5795 5792 5790 5787 5784 5781
5841 5841 5839 5838 5837 5837 5835 5833 5829 5827 5827 5826 5825 5823 5822 5822 5821 5819 5818 5818 5817 5816 5815 5815 5814 5813 5811 5810 5810 5809 5809 5808 5807 5805 5804 5801 5799 5798 5796 5794 5792 5790 5787 5784 5781 5778 5775 5772 5769
5836 5834 5833 5832 5831 5831 5829 5828 5825 5822 5822 5821 5819 5818 5816 5815 5814 5813 5813 5812 5810 5809 5808 5808 5806 5805 5803 5803 5802 5801 5800 5799 5797 5796 5795 5793 5790 5787 5785 5784 5782 5779 5776 5773 5769 5766 5763 5759 5756
5830 5829 5828 5827 5825 5825 5823 5821 5820 5818 5817 5816 5814 5812 5811 5809 5808 5806 5805 5805 5803 5802 5800 5800 5799 5797 5795 5795 5794 5792 5791 5789 5788 5787 5785 5783 5780 5777 5774 5772 5770 5767 5764 5761 5757 5753 5749 5745 5741
5825 5824 5823 5823 5821 5820 5819 5816 5814 5813 5812 5811 5809 5807 5805 5804 5802 5800 5798 5797 5796 5794 5792 5791 5790 5789 5787 5786 5784 5783 5782 5781 5779 5778 5775 5772 5769 5766 5763 5760 5758 5754 5751 5748 5744 5739 5735 5731 5727
5821 5820 5819 5818 5817 5816 5815 5813 5809 5808 5807 5806 5804 5802 5800 5798 5796 5794 5792 5790 5788 5786 5784 5783 5781 5780 5779 5776 5775 5774 5772 5771 5769 5767 5764 5761 5758 5755 5752 5748 5744 5741 5737 5734 5729 5725 5720 5716 5712
5817 5816 5815 5813 5812 5812 5811 5810 5805 5802 5801 5800 5798 5796 5794 5792 5790 5788 5785 5783 5781 5778 5776 5774 5772 5770 5768 5766 5765 5763 5761 5760 5758 5754 5752 5749 5745 5742 5739 5735 5731 5727 5723 5719 5714 5709 5705 5700 5695
5813 5812 5811 5809 5807 5807 5806 5805 5804 5797 5795 5794 5792 5790 5788 5786 5784 5781 5778 5775 5773 5770 5768 5765 5763 5760 5758 5756 5754 5751 5750 5748 5744 5741 5739 5736 5732 5728 5725 5721 5716 5712 5707 5703 5698 5693 5688 5684 5679
5808 5808 5806 5804 5803 5803 5801 5800 5799 5793 5790 5787 5784 5782 5781 5779 5777 5774 5770 5767 5764 5762 5759 5756 5753 5750 5747 5744 5742 5739 5737 5734 5730 5727 5724 5721 5718 5715 5711 5705 5701 5696 5691 5687 5682 5676 5672 5667 5663
5804 5803 5801 5798 5797 5795 5794 5793 5793 5788 5785 5781 5778 5775 5773 5771 5769 5765 5762 5759 5756 5752 5749 5746 5743 5739 5736 5733 5730 5726 5723 5720 5716 5713 5709 5705 5702 5699 5695 5690 5685 5680 5675 5670 5665 5660 5655 5650 5646
5799 5797 5796 5793 5791 5790 5789 5787 5787 5782 5778 5774 5770 5767 5764 5763 5760 5756 5753 5749 5745 5742 5738 5735 5731 5728 5724 5720 5717 5713 5710 5706 5702 5698 5694 5690 5686 5683 5678 5674 5669 5665 5659 5654 5648 5643 5638 5633 5628
5793 5792 5790 5787 5784 5782 5782 5781 5779 5775 5770 5766 5762 5758 5755 5754 5750 5746 5742 5738 5735 5731 5727 5723 5719 5715 5711 5707 5703 5699 5695 5691 5687 5683 5679 5675 5670 5666 5661 5657 5653 5648 5643 5637 5631 5626 5622 5616 5611
5787 5785 5783 5779 5776 5773 5772 5772 5770 5765 5762 5757 5752 5748 5746 5744 5740 5736 5732 5728 5724 5720 5715 5711 5707 5703 5699 5694 5690 5686 5681 5677 5673 5668 5664 5659 5655 5650 5645 5640 5636 5631 5627 5621 5615 5610 5605 5599 5594
5782 5780 5776 5773 5770 5766 5763 5766 5763 5758 5754 5749 5745 5741 5738 5735 5731 5727 5722 5718 5714 5709 5705 5700 5695 5691 5686 5681 5676 5672 5667 5662 5658 5653 5649 5644 5640 5634 5629 5624 5619 5615 5610 5604 5598 5593 5587 5582 5577
5773 5771 5769 5766 5763 5759 5755 5758 5754 5749 5744 5740 5737 5733 5729 5726 5721 5717 5712 5708 5703 5698 5694 5689 5684 5678 5673 5668 5663 5658 5653 5648 5643 5639 5634 5629 5624 5619 5614 5608 5603 5598 5593 5587 5582 5576 5570 5565 5560